Location: Eimen
(51.8766°N, 9.7806°E)
Time: 11:34:48
(UTC+00:00)

Cosmos 2251 Rocket - Pass Details

Date: 23 May 2024
Orbit: 762 x 790 km, 74.0° (Epoch: 18 June)

Event Time Altitude Azimuth Distance (km) Brightness Sun altitude
Exits shadow 00:44:27 17° 237° (WSW) 1,878 5.0 -15.0°
Maximum altitude 00:48:13 44° 304° (WNW) 1,061 4.3 -14.8°
Drops below altitude 10° 00:53:17 10° 16° (NNE) 2,334 7.4 -14.5°
Sets 00:55:48 0° 23° (NNE) 3,270 8.8 -14.4°
